Tracking 18856 objects as of 12-Dec-2017
HD Live streaming from Space Station
objects crossing your sky now

COSMOS 252 DEB

Track COSMOS 252 DEB now!
10-day predictions


NORAD ID: 3559
Int'l Code: 1968-097M
Perigee: 529.1 km
Apogee: 1,331.6 km
Inclination: 62.3 °
Period: 103.5 minutes
Semi major axis: 7301 km
RCS: 0.1149 m2 (medium)
Launch date: November 1, 1968
Source: Commonwealth of Independent States (former USSR) (CIS)
Launch site: TYURATAM MISSILE AND SPACE COMPLEX (TTMTR)

Note: This is SATELLITE DEBRIS
aabbcc
Your satellite tracking list
Your tracking list is empty




NASA's NSSDC Master Catalog

Two Line Element Set (TLE):
1  3559U 68097M   17345.71833865 +.00000702 +00000-0 +19167-3 0  9999
2  3559 062.2972 109.6545 0549495 193.2754 165.3322 13.91547894409342
Source of the keplerian elements: AFSPC